Date String (YYYY-MM-DD hh:mm:ss) UTC,Instrument flags,Ambient pressure (hPa),Sample flow (lpm),Bypass flow (lpm),Sample temperature (°C),Ambient temperature (°C),ASC tube jacket temperature (°C),LED temperature (°C),Box temperature (°C),Sample RH (%),Span deviation,Mass concentration (μg/m³),Mass concentration (μg/m³),Mass concentration (μg/m³)
DateTimeUTC,F1_M11,P_M11,Q1_M11,Q2_M11,T1_M11,T2_M11,T3_M11,T4_M11,T5_M11,U1_M11,ZSPAN_M11,X0_M11,X2_M11,X1_M11
2022-02-22 13:00:00,,0824.1,4.99,0.00,22.4,21.9,00.0,31.4,24.0,03.5,0002.7,0007.90,0004.24,0003.77
2022-02-22 13:01:00,,0824.0,5.02,0.00,22.3,21.5,00.0,31.4,23.8,03.5,0002.4,0007.99,0004.30,0003.81
2022-02-22 13:02:00,,0823.9,5.00,0.00,22.2,21.1,00.0,31.3,23.7,03.5,0001.8,0007.98,0004.33,0003.86
2022-02-22 13:03:00,,0824.1,5.01,0.00,22.2,21.7,00.0,31.4,23.8,03.5,0002.2,0007.79,0004.38,0003.90
2022-02-22 13:04:00,,0824.1,4.99,0.00,22.3,22.4,00.0,31.4,24.1,03.5,0002.0,0007.76,0004.46,0003.95
2022-02-22 13:05:00,,0824.1,5.00,0.00,22.5,23.1,00.0,31.4,24.3,03.5,0000.6,0007.77,0004.48,0003.98
2022-02-22 13:06:00,,0824.0,5.00,0.00,22.6,23.3,00.0,31.5,24.5,03.5,0002.0,0007.76,0004.48,0003.99
2022-02-22 13:07:00,,0824.1,4.99,0.00,22.6,22.8,00.0,31.5,24.4,03.4,0002.1,0007.85,0004.53,0004.02
2022-02-22 13:08:00,,0824.1,5.01,0.00,22.5,22.4,00.0,31.4,24.1,03.4,0002.2,0007.94,0004.60,0004.06
2022-02-22 13:09:00,,0824.1,5.00,0.00,22.4,22.0,00.0,31.4,23.9,03.4,0002.9,0007.90,0004.65,0004.10
2022-02-22 13:10:00,,0824.1,5.00,0.00,22.3,21.7,00.0,31.4,23.8,03.4,0003.1,0007.88,0004.66,0004.13
2022-02-22 13:11:00,,0824.2,5.00,0.00,22.2,21.7,00.0,31.4,23.7,03.4,0003.5,0007.89,0004.66,0004.15
2022-02-22 13:12:00,,0824.3,4.99,0.00,22.3,22.3,00.0,31.4,23.9,03.4,0003.7,0008.09,0004.66,0004.16
2022-02-22 13:13:00,,0824.2,5.01,0.00,22.4,22.8,00.0,31.4,24.2,03.3,0003.8,0008.41,0004.70,0004.19
2022-02-22 13:14:00,,0824.1,5.00,0.00,22.6,23.3,00.0,31.5,24.4,03.3,0003.7,0008.46,0004.75,0004.22
2022-02-22 13:15:00,,0824.2,5.00,0.00,22.6,23.2,00.0,31.5,24.4,03.3,0003.9,0008.74,0004.79,0004.24
2022-02-22 13:16:00,,0824.3,4.99,0.00,22.6,22.7,00.0,31.5,24.2,03.3,0003.8,0009.18,0004.85,0004.29
2022-02-22 13:17:00,,0824.3,5.00,0.00,22.4,22.3,00.0,31.4,24.0,03.3,0004.2,0009.12,0004.85,0004.32
2022-02-22 13:18:00,,0824.2,5.00,0.00,22.3,21.9,00.0,31.4,23.8,03.3,0003.9,0009.09,0004.87,0004.36
2022-02-22 13:19:00,,0824.2,5.00,0.00,22.3,21.9,00.0,31.4,23.8,03.3,0003.2,0009.06,0004.89,0004.38
2022-02-22 13:20:00,,0824.3,4.99,0.00,22.4,22.5,00.0,31.4,24.1,03.3,0001.9,0009.12,0004.91,0004.39
2022-02-22 13:21:00,,0824.3,5.01,0.00,22.5,23.0,00.0,31.5,24.3,03.2,0000.7,0009.23,0004.94,0004.42
2022-02-22 13:22:00,,0824.4,5.00,0.00,22.6,23.3,00.0,31.5,24.5,03.2,0000.0,0009.26,0004.97,0004.43
2022-02-22 13:23:00,,0824.3,4.99,0.00,22.6,22.7,00.0,31.5,24.4,03.2,0000.0,0009.09,0005.01,0004.46
2022-02-22 13:24:00,,0824.3,5.00,0.00,22.6,22.2,00.0,31.5,24.2,03.2,0000.0,0008.78,0005.00,0004.48
2022-02-22 13:25:00,,0824.3,5.00,0.00,22.5,21.6,00.0,31.5,24.0,03.2,0000.0,0008.73,0004.99,0004.49
2022-02-22 13:26:00,,0824.4,5.00,0.00,22.4,21.2,00.0,31.4,23.9,03.2,0000.0,0009.27,0004.98,0004.51
2022-02-22 13:27:00,,0824.4,5.01,0.00,22.3,21.0,00.0,31.4,23.7,03.2,0000.0,0009.46,0004.97,0004.51
2022-02-22 13:28:00,,0824.3,5.00,0.00,22.3,21.6,00.0,31.4,23.8,03.2,0000.0,0009.64,0005.02,0004.52
2022-02-22 13:29:00,,0824.2,4.99,0.00,22.4,22.4,00.0,31.4,24.1,03.2,0000.0,0009.85,0005.06,0004.52
2022-02-22 13:30:00,,0824.3,5.00,0.00,22.5,23.0,00.0,31.5,24.3,03.2,0000.0,0009.81,0005.02,0004.51
2022-02-22 13:31:00,,0824.2,5.01,0.00,22.6,22.8,00.0,31.5,24.4,03.2,0000.7,0009.77,0005.00,0004.49
2022-02-22 13:32:00,,0824.3,4.99,0.00,22.5,22.4,00.0,31.5,24.2,03.2,0002.2,0009.72,0005.00,0004.49
2022-02-22 13:33:00,,0824.2,5.00,0.00,22.4,22.0,00.0,31.4,24.0,03.2,0002.6,0009.77,0005.03,0004.50
2022-02-22 13:34:00,,0824.3,5.00,0.00,22.3,21.7,00.0,31.4,23.8,03.2,0003.0,0009.83,0005.01,0004.48
2022-02-22 13:35:00,,0824.3,5.00,0.00,22.2,21.5,00.0,31.4,23.7,03.3,0002.9,0010.06,0005.01,0004.47
2022-02-22 13:36:00,,0824.3,5.00,0.00,22.3,21.9,00.0,31.4,23.8,03.3,0003.1,0010.03,0005.00,0004.45
2022-02-22 13:37:00,,0824.3,5.02,0.00,22.4,22.5,00.0,31.4,24.0,03.2,0003.2,0009.14,0004.98,0004.43
2022-02-22 13:38:00,,0824.3,5.00,0.00,22.5,23.0,00.0,31.4,24.3,03.2,0003.4,0008.58,0004.94,0004.39
2022-02-22 13:39:00,,0824.4,5.01,0.00,22.6,23.3,00.0,31.4,24.4,03.2,0003.9,0008.53,0004.92,0004.37
2022-02-22 13:40:00,,0824.3,4.99,0.00,22.6,22.7,00.0,31.4,24.3,03.2,0004.2,0008.28,0004.85,0004.34
2022-02-22 13:41:00,,0824.3,5.01,0.00,22.5,22.1,00.0,31.4,24.1,03.2,0004.0,0008.27,0004.84,0004.32
2022-02-22 13:42:00,,0824.4,5.01,0.00,22.4,21.6,00.0,31.4,23.9,03.2,0003.6,0008.19,0004.80,0004.29
2022-02-22 13:43:00,,0824.4,4.99,0.00,22.2,21.1,00.0,31.3,23.7,03.2,0003.8,0008.10,0004.75,0004.26
2022-02-22 13:44:00,,0824.3,5.00,0.00,22.2,21.2,00.0,31.3,23.6,03.3,0003.8,0008.01,0004.70,0004.25
2022-02-22 13:45:00,,0824.3,4.98,0.00,22.3,22.0,00.0,31.3,23.9,03.2,0003.4,0008.21,0004.70,0004.24
2022-02-22 13:46:00,,0824.3,5.02,0.00,22.4,22.7,00.0,31.4,24.1,03.2,0003.3,0008.02,0004.69,0004.23
2022-02-22 13:47:00,,0824.3,5.00,0.00,22.5,23.3,00.0,31.4,24.4,03.2,0003.2,0008.04,0004.71,0004.22
2022-02-22 13:48:00,,0824.4,4.98,0.00,22.6,23.1,00.0,31.5,24.4,03.2,0003.0,0008.09,0004.71,0004.23
2022-02-22 13:49:00,,0824.6,5.02,0.00,22.5,22.4,00.0,31.4,24.2,03.2,0002.3,0008.12,0004.73,0004.25
2022-02-22 13:50:00,,0824.6,5.00,0.00,22.5,21.8,00.0,31.4,24.0,03.2,0001.6,0008.13,0004.71,0004.25
2022-02-22 13:51:00,,0824.5,5.00,0.00,22.3,21.3,00.0,31.4,23.8,03.2,0000.9,0008.49,0004.73,0004.26
2022-02-22 13:52:00,,0824.3,5.00,0.00,22.2,20.8,00.0,31.3,23.6,03.2,0000.9,0008.47,0004.73,0004.27
2022-02-22 13:53:00,,0824.4,5.02,0.00,22.1,20.9,00.0,31.3,23.5,03.3,0001.7,0008.47,0004.76,0004.29
2022-02-22 13:54:00,,0824.6,4.98,0.00,22.2,21.8,00.0,31.3,23.8,03.3,0001.6,0008.57,0004.78,0004.31
2022-02-22 13:55:00,,0824.5,5.01,0.00,22.3,22.6,00.0,31.3,24.0,03.3,0001.5,0008.62,0004.79,0004.31
2022-02-22 13:56:00,,0824.4,5.01,0.00,22.5,23.2,00.0,31.4,24.3,03.2,0001.4,0008.40,0004.79,0004.30
2022-02-22 13:57:00,,0824.5,4.98,0.00,22.6,23.2,00.0,31.4,24.4,03.2,0001.4,0008.35,0004.78,0004.29
2022-02-22 13:58:00,,0824.8,4.99,0.00,22.5,22.6,00.0,31.4,24.3,03.2,0001.5,0008.45,0004.78,0004.28
2022-02-22 13:59:00,,0824.8,5.01,0.00,22.5,22.1,00.0,31.4,24.1,03.2,0001.6,0008.47,0004.78,0004.27
